Location: Arthez
(43.0833°N, 0.2500°W)
Time: 10:36:30
(UTC+00:00)

FENGYUN 1C DEB - Visible Passes

Search period start: 17 August 2022 00:00
Search period end: 27 August 2022 00:00
Orbit: 798 x 1134 km, 98.1° (Epoch: 16 August)

Date Brightness Start Highest point End Pass type
(mag) Time Alt. Az. Time Alt. Az. Time Alt. Az.
17 Aug ? 03:00:22 10° NNE 03:05:39 32° E 03:11:16 10° SSE visible
18 Aug ? 03:22:10 10° NNE 03:27:55 49° E 03:34:06 10° S visible
19 Aug ? 02:05:04 10° ENE 02:06:11 10° E 02:07:19 10° E visible
19 Aug ? 03:44:09 10° NNE 03:50:07 73° ESE 03:56:36 10° S visible
20 Aug ? 02:24:44 10° NE 02:28:39 17° E 02:32:44 10° SE visible
20 Aug ? 04:06:16 10° N 04:12:17 78° WNW 04:18:46 10° SSW visible
21 Aug ? 02:45:57 10° NE 02:51:02 27° E 02:56:23 10° SSE visible
21 Aug ? 04:28:32 10° N 04:34:22 53° WNW 04:40:39 10° SW visible
22 Aug ? 03:07:37 10° NNE 03:13:20 40° E 03:19:26 10° SSE visible
23 Aug ? 03:29:30 10° NNE 03:35:34 59° E 03:42:06 10° S visible
24 Aug ? 02:10:48 10° ENE 02:13:57 14° E 02:17:11 10° ESE visible
24 Aug ? 03:51:33 10° NNE 03:57:45 86° E 04:04:26 10° SSW visible
25 Aug ? 02:31:38 10° NE 02:36:23 22° E 02:41:19 10° SE visible
25 Aug ? 04:13:44 10° N 04:19:53 66° WNW 04:26:28 10° SSW visible
26 Aug ? 02:53:07 10° NNE 02:58:44 33° E 03:04:38 10° SSE visible
26 Aug ? 04:36:04 10° N 04:41:56 46° WNW 04:48:13 10° SW visible
